| time (UTC) | temp C | wind direction | speed KPH | gust KPH | rain 1hr cm | rain 24hr cm | rain mn cm | humidity % | barometer mb |
| 20260504081530 | 12 | 153 | 0.0 | 0.0 | 0.00 | 0.00 | 0.00 | 89 | 1017.3 |
| 20260504050008 | 14 | 136 | 0.0 | 0.0 | 0.00 | 0.00 | 0.00 | 85 | 1018.7 |
| 20260504044523 | 14 | 136 | 0.0 | 1.6 | 0.00 | 0.00 | 0.00 | 85 | 1018.7 |
| 20260504043017 | 14 | 39 | 0.0 | 0.0 | 0.00 | 0.00 | 0.00 | 84 | 1018.8 |
| 20260504041520 | 14 | 39 | 0.0 | 1.6 | 0.00 | 0.00 | 0.00 | 84 | 1018.9 |
| 20260504040007 | 15 | 39 | 0.0 | 1.6 | 0.00 | 0.00 | 0.00 | 85 | 1018.9 |
| 20260504034512 | 15 | 39 | 0.0 | 1.6 | 0.00 | 0.00 | 0.00 | 84 | 1018.8 |
| 20260504033016 | 15 | 313 | 0.0 | 1.6 | 0.00 | 0.00 | 0.00 | 84 | 1018.8 |
| 20260504031518 | 15 | 7 | 0.0 | 1.6 | 0.00 | 0.00 | 0.00 | 84 | 1018.9 |
| 20260504030036 | 15 | 7 | 0.0 | 1.6 | 0.00 | 0.00 | 0.00 | 83 | 1018.9 |
| 20260504024509 | 15 | 285 | 0.0 | 1.6 | 0.00 | 0.00 | 0.00 | 82 | 1018.7 |
| 20260504023012 | 15 | 140 | 0.0 | 1.6 | 0.00 | 0.00 | 0.00 | 83 | 1018.5 |
| 20260504021528 | 15 | 126 | 0.0 | 1.6 | 0.00 | 0.00 | 0.00 | 82 | 1018.5 |
| 20260504020020 | 15 | 126 | 0.0 | 1.6 | 0.00 | 0.00 | 0.00 | 81 | 1018.2 |
| 20260504014522 | 16 | 126 | 0.0 | 1.6 | 0.00 | 0.00 | 0.00 | 80 | 1018.1 |
| 20260504013010 | 16 | 126 | 0.0 | 1.6 | 0.00 | 0.00 | 0.00 | 77 | 1018.0 |
| 20260504011518 | 17 | 126 | 0.0 | 1.6 | 0.00 | 0.00 | 0.00 | 75 | 1017.8 |
| 20260504010018 | 17 | 126 | 0.0 | 1.6 | 0.00 | 0.00 | 0.00 | 73 | 1017.8 |
| 20260504004528 | 18 | 126 | 0.0 | 1.6 | 0.00 | 0.00 | 0.00 | 68 | 1017.8 |
| 20260504003024 | 20 | 126 | 0.0 | 1.6 | 0.00 | 0.00 | 0.00 | 64 | 1017.7 |
| 20260504001526 | 22 | 139 | 0.0 | 3.2 | 0.00 | 0.00 | 0.00 | 57 | 1017.7 |
| 20260504000014 | 23 | 203 | 0.0 | 3.2 | 0.00 | 0.00 | 0.00 | 50 | 1017.7 |
| 20260503234534 | 23 | 138 | 1.6 | 4.8 | 0.00 | 0.00 | 0.00 | 47 | 1017.8 |
| 20260503233023 | 24 | 131 | 1.6 | 6.4 | 0.00 | 0.00 | 0.00 | 48 | 1017.9 |
| 20260503231527 | 25 | 123 | 1.6 | 4.8 | 0.00 | 0.00 | 0.00 | 46 | 1017.9 |
| 20260503230013 | 25 | 134 | 1.6 | 6.4 | 0.00 | 0.00 | 0.00 | 46 | 1017.9 |
| 20260503224526 | 25 | 167 | 3.2 | 6.4 | 0.00 | 0.00 | 0.00 | 45 | 1017.9 |
| 20260503223021 | 25 | 151 | 1.6 | 6.4 | 0.00 | 0.00 | 0.00 | 42 | 1018.0 |
| 20260503221526 | 25 | 184 | 1.6 | 4.8 | 0.00 | 0.00 | 0.00 | 41 | 1018.0 |
| 20260503220042 | 25 | 213 | 1.6 | 8.0 | 0.00 | 0.00 | 0.00 | 40 | 1018.2 |
| 20260503214517 | 25 | 189 | 1.6 | 6.4 | 0.00 | 0.00 | 0.00 | 42 | 1018.5 |
| 20260503213019 | 25 | 197 | 3.2 | 8.0 | 0.00 | 0.00 | 0.00 | 41 | 1018.7 |
| 20260503211524 | 25 | 305 | 4.8 | 11.3 | 0.00 | 0.00 | 0.00 | 43 | 1019.0 |
| 20260503210024 | 25 | 162 | 1.6 | 6.4 | 0.00 | 0.00 | 0.00 | 40 | 1019.2 |
| 20260503204530 | 25 | 133 | 1.6 | 6.4 | 0.00 | 0.00 | 0.00 | 40 | 1019.3 |
| 20260503203030 | 24 | 210 | 1.6 | 11.3 | 0.00 | 0.00 | 0.00 | 41 | 1019.4 |
| 20260503201503 | 25 | 223 | 3.2 | 9.7 | 0.00 | 0.00 | 0.00 | 40 | 1019.5 |
| 20260503200004 | 25 | 174 | 6.4 | 12.9 | 0.00 | 0.00 | 0.00 | 38 | 1019.8 |
| 20260503194508 | 25 | 243 | 4.8 | 8.0 | 0.00 | 0.00 | 0.00 | 40 | 1020.0 |
| 20260503193014 | 24 | 207 | 4.8 | 8.0 | 0.00 | 0.00 | 0.00 | 39 | 1020.1 |
| 20260503191527 | 24 | 279 | 6.4 | 11.3 | 0.00 | 0.00 | 0.00 | 37 | 1020.3 |
| 20260503190003 | 24 | 276 | 1.6 | 8.0 | 0.00 | 0.00 | 0.00 | 36 | 1020.5 |
| 20260503184507 | 25 | 304 | 3.2 | 8.0 | 0.00 | 0.00 | 0.00 | 38 | 1020.7 |
| 20260503183039 | 23 | 276 | 1.6 | 9.7 | 0.00 | 0.00 | 0.00 | 38 | 1021.0 |
| 20260503181518 | 24 | 52 | 1.6 | 11.3 | 0.00 | 0.00 | 0.00 | 38 | 1021.3 |
| 20260503180026 | 24 | 44 | 3.2 | 6.4 | 0.00 | 0.00 | 0.00 | 39 | 1021.5 |
| 20260503174505 | 23 | 143 | 1.6 | 9.7 | 0.00 | 0.00 | 0.00 | 33 | 1021.4 |
| 20260503173007 | 23 | 96 | 3.2 | 16.1 | 0.00 | 0.00 | 0.00 | 38 | 1021.6 |
| 20260503171513 | 23 | 222 | 3.2 | 12.9 | 0.00 | 0.00 | 0.00 | 37 | 1022.0 |